| time (UTC) | temp F | wind direction | speed knots | gust knots | rain 1hr in | rain 24hr in | rain mn in | humidity % | barometer mb |
| 20260507010025 | 43 | 279 | 2.6 | 6.1 | 0.03 | 0.81 | 0.81 | 98 | 1007.1 |
| 20260507004522 | 43 | 321 | 3.5 | 5.2 | 0.02 | 0.80 | 0.80 | 98 | 1006.7 |
| 20260507003021 | 44 | 290 | 1.7 | 3.5 | 0.02 | 0.79 | 0.79 | 98 | 1006.8 |
| 20260507001521 | 44 | 300 | 1.7 | 6.1 | 0.01 | 0.78 | 0.78 | 98 | 1006.5 |
| 20260507000020 | 44 | 298 | 2.6 | 7.0 | 0.01 | 0.78 | 0.78 | 98 | 1006.6 |
| 20260506234519 | 45 | 338 | 4.3 | 7.8 | 0.02 | 0.78 | 0.78 | 98 | 1006.3 |
| 20260506233017 | 45 | 331 | 3.5 | 5.2 | 0.01 | 0.77 | 0.77 | 98 | 1006.1 |
| 20260506231516 | 45 | 174 | 0.0 | 2.6 | 0.05 | 0.77 | 0.77 | 98 | 1006.0 |
| 20260506230016 | 45 | 174 | 0.9 | 2.6 | 0.09 | 0.76 | 0.76 | 98 | 1006.1 |
| 20260506224524 | 45 | 260 | 1.7 | 3.5 | 0.11 | 0.77 | 0.76 | 98 | 1006.1 |
| 20260506223015 | 45 | 267 | 3.5 | 10.4 | 0.12 | 0.76 | 0.75 | 97 | 1005.9 |
| 20260506221513 | 45 | 319 | 3.5 | 9.6 | 0.09 | 0.72 | 0.71 | 96 | 1006.0 |
| 20260506220010 | 46 | 315 | 5.2 | 13.0 | 0.06 | 0.68 | 0.67 | 96 | 1005.6 |
| 20260506214505 | 47 | 305 | 5.2 | 10.4 | 0.05 | 0.73 | 0.65 | 96 | 1005.1 |
| 20260506213001 | 49 | 5 | 4.3 | 8.7 | 0.04 | 0.71 | 0.63 | 96 | 1004.9 |
| 20260506211558 | 50 | 317 | 4.3 | 7.8 | 0.03 | 0.70 | 0.62 | 96 | 1004.7 |
| 20260506210119 | 51 | 317 | 2.6 | 7.0 | 0.02 | 0.69 | 0.61 | 95 | 1004.7 |
| 20260506204556 | 53 | 323 | 3.5 | 5.2 | 0.01 | 0.68 | 0.60 | 95 | 1004.6 |
| 20260506203141 | 56 | 311 | 2.6 | 4.3 | 0.00 | 0.67 | 0.59 | 94 | 1004.5 |
| 20260506201555 | 57 | 322 | 0.9 | 7.0 | 0.02 | 0.67 | 0.59 | 93 | 1004.3 |
| 20260506200055 | 58 | 293 | 2.6 | 8.7 | 0.05 | 0.67 | 0.59 | 89 | 1004.4 |
| 20260506194552 | 57 | 219 | 5.2 | 13.0 | 0.18 | 0.67 | 0.59 | 88 | 1004.7 |
| 20260506193051 | 57 | 209 | 4.3 | 11.3 | 0.26 | 0.67 | 0.59 | 90 | 1004.9 |
| 20260506191553 | 56 | 232 | 1.7 | 8.7 | 0.28 | 0.65 | 0.56 | 95 | 1005.1 |
| 20260506190054 | 56 | 360 | 0.0 | 3.5 | 0.26 | 0.62 | 0.54 | 98 | 1005.3 |
| 20260506184555 | 56 | 355 | 0.9 | 1.7 | 0.16 | 0.48 | 0.40 | 97 | 1005.4 |
| 20260506183047 | 56 | 355 | 1.7 | 7.0 | 0.11 | 0.40 | 0.32 | 97 | 1005.1 |
| 20260506181545 | 57 | 156 | 0.9 | 1.7 | 0.10 | 0.37 | 0.28 | 96 | 1005.4 |
| 20260506180046 | 57 | 153 | 2.6 | 4.3 | 0.10 | 0.36 | 0.28 | 96 | 1005.6 |
| 20260506174546 | 57 | 164 | 0.9 | 4.3 | 0.08 | 0.32 | 0.24 | 96 | 1005.8 |
| 20260506173052 | 57 | 171 | 1.7 | 4.3 | 0.06 | 0.28 | 0.21 | 96 | 1005.8 |
| 20260506171543 | 57 | 183 | 1.7 | 3.5 | 0.05 | 0.27 | 0.19 | 97 | 1005.6 |
| 20260506170042 | 56 | 136 | 0.9 | 3.5 | 0.05 | 0.26 | 0.18 | 98 | 1005.7 |
| 20260506164547 | 56 | 131 | 0.0 | 1.7 | 0.04 | 0.24 | 0.16 | 99 | 1005.8 |
| 20260506163055 | 56 | 131 | 0.0 | 2.6 | 0.05 | 0.23 | 0.15 | 99 | 1005.9 |
| 20260506161538 | 55 | 121 | 1.7 | 5.2 | 0.04 | 0.22 | 0.14 | 99 | 1006.4 |
| 20260506160036 | 54 | 346 | 0.0 | 0.9 | 0.04 | 0.21 | 0.13 | 99 | 1006.9 |
| 20260506154538 | 54 | 342 | 0.0 | 1.7 | 0.03 | 0.20 | 0.12 | 98 | 1007.5 |
| 20260506153034 | 54 | 342 | 0.0 | 1.7 | 0.01 | 0.18 | 0.10 | 98 | 1007.4 |
| 20260506151539 | 53 | 342 | 0.9 | 3.5 | 0.01 | 0.18 | 0.10 | 98 | 1007.5 |
| 20260506150033 | 54 | 345 | 0.9 | 3.5 | 0.00 | 0.17 | 0.09 | 98 | 1007.5 |
| 20260506144532 | 53 | 346 | 1.7 | 3.5 | 0.00 | 0.17 | 0.09 | 98 | 1007.6 |
| 20260506143032 | 53 | 337 | 1.7 | 3.5 | 0.01 | 0.17 | 0.09 | 98 | 1007.5 |
| 20260506141531 | 53 | 338 | 1.7 | 4.3 | 0.02 | 0.17 | 0.09 | 98 | 1007.4 |
| 20260506140034 | 53 | 348 | 0.9 | 2.6 | 0.02 | 0.17 | 0.09 | 97 | 1007.1 |
| 20260506134530 | 53 | 348 | 0.9 | 4.3 | 0.02 | 0.17 | 0.09 | 97 | 1007.2 |
| 20260506133030 | 53 | 355 | 1.7 | 4.3 | 0.01 | 0.16 | 0.08 | 97 | 1007.8 |
| 20260506131535 | 54 | 336 | 2.6 | 3.5 | 0.00 | 0.15 | 0.07 | 97 | 1007.5 |
| 20260506130030 | 54 | 303 | 2.6 | 5.2 | 0.00 | 0.15 | 0.07 | 96 | 1007.8 |
| 20260506124529 | 54 | 142 | 0.0 | 1.7 | 0.00 | 0.15 | 0.07 | 97 | 1007.4 |
| 20260506123028 | 53 | 142 | 0.9 | 3.5 | 0.00 | 0.15 | 0.07 | 97 | 1007.5 |
| 20260506121528 | 53 | 141 | 2.6 | 4.3 | 0.00 | 0.15 | 0.07 | 98 | 1007.6 |
| 20260506120028 | 53 | 146 | 1.7 | 3.5 | 0.00 | 0.15 | 0.07 | 99 | 1007.7 |
| 20260506114526 | 52 | 166 | 1.7 | 4.3 | 0.00 | 0.15 | 0.07 | 99 | 1008.0 |
| 20260506113027 | 51 | 169 | 0.9 | 1.7 | 0.00 | 0.15 | 0.07 | 99 | 1008.2 |
| 20260506111530 | 51 | 169 | 0.0 | 0.0 | 0.00 | 0.15 | 0.07 | 98 | 1008.3 |
| 20260506110026 | 51 | 169 | 0.0 | 0.0 | 0.00 | 0.15 | 0.07 | 98 | 1008.0 |
| 20260506104525 | 50 | 169 | 0.0 | 0.0 | 0.00 | 0.15 | 0.07 | 98 | 1008.1 |
| 20260506103025 | 50 | 169 | 0.0 | 2.6 | 0.00 | 0.15 | 0.07 | 97 | 1008.0 |
| 20260506101524 | 50 | 169 | 0.9 | 1.7 | 0.00 | 0.15 | 0.07 | 97 | 1008.0 |
| 20260506100023 | 50 | 169 | 0.9 | 3.5 | 0.00 | 0.15 | 0.07 | 97 | 1008.2 |
| 20260506094522 | 50 | 141 | 1.7 | 3.5 | 0.00 | 0.15 | 0.07 | 97 | 1008.0 |
| 20260506093021 | 51 | 141 | 0.9 | 3.5 | 0.00 | 0.15 | 0.07 | 97 | 1008.3 |
| 20260506091520 | 51 | 141 | 0.0 | 3.5 | 0.00 | 0.15 | 0.07 | 97 | 1008.7 |
| 20260506090018 | 51 | 148 | 0.9 | 2.6 | 0.00 | 0.15 | 0.07 | 96 | 1008.5 |
| 20260506084523 | 51 | 109 | 0.9 | 3.5 | 0.00 | 0.15 | 0.07 | 96 | 1008.5 |
| 20260506083019 | 51 | 107 | 0.0 | 0.0 | 0.00 | 0.15 | 0.07 | 96 | 1008.5 |
| 20260506081515 | 51 | 107 | 0.0 | 0.0 | 0.00 | 0.15 | 0.07 | 96 | 1008.4 |
| 20260506073012 | 52 | 107 | 0.0 | 0.9 | 0.02 | 0.15 | 0.07 | 95 | 1009.1 |
| 20260506071512 | 52 | 107 | 0.0 | 2.6 | 0.03 | 0.15 | 0.07 | 94 | 1009.1 |
| 20260506061507 | 53 | 294 | 0.9 | 4.3 | 0.03 | 0.12 | 0.04 | 93 | 1009.0 |
| 20260506050109 | 58 | 298 | 6.1 | 12.2 | 0.00 | 0.08 | 0.00 | 82 | 1008.0 |
| 20260506044547 | 59 | 170 | 1.7 | 5.2 | 0.00 | 0.08 | 0.00 | 83 | 1007.5 |
| 20260506043042 | 61 | 178 | 2.6 | 6.1 | 0.00 | 0.08 | 0.00 | 77 | 1007.0 |
| 20260506041555 | 62 | 170 | 1.7 | 5.2 | 0.00 | 0.08 | 0.00 | 71 | 1006.9 |
| 20260506040038 | 63 | 194 | 4.3 | 10.4 | 0.00 | 0.08 | 0.00 | 69 | 1007.0 |
| 20260506034548 | 64 | 194 | 3.5 | 11.3 | 0.00 | 0.08 | 0.08 | 66 | 1007.0 |
| 20260506033038 | 64 | 177 | 7.8 | 15.6 | 0.00 | 0.08 | 0.08 | 66 | 1007.1 |
| 20260506031535 | 64 | 217 | 2.6 | 7.0 | 0.00 | 0.08 | 0.08 | 66 | 1007.1 |
| 20260506030037 | 63 | 229 | 0.9 | 5.2 | 0.00 | 0.08 | 0.08 | 67 | 1007.0 |
| 20260506024534 | 63 | 205 | 1.7 | 5.2 | 0.00 | 0.08 | 0.08 | 68 | 1006.7 |
| 20260506023033 | 63 | 201 | 5.2 | 13.0 | 0.00 | 0.08 | 0.08 | 67 | 1006.8 |
| 20260506021533 | 62 | 178 | 1.7 | 8.7 | 0.00 | 0.08 | 0.08 | 71 | 1007.0 |
| 20260506020032 | 63 | 175 | 3.5 | 8.7 | 0.00 | 0.08 | 0.08 | 67 | 1006.8 |
| 20260506014532 | 64 | 199 | 5.2 | 10.4 | 0.00 | 0.08 | 0.08 | 67 | 1007.3 |
| 20260506013046 | 63 | 217 | 6.1 | 16.5 | 0.00 | 0.08 | 0.08 | 68 | 1007.1 |
| 20260506011531 | 64 | 207 | 8.7 | 13.9 | 0.00 | 0.08 | 0.08 | 66 | 1007.1 |